Date String (YYYY-MM-DD hh:mm:ss) UTC,Instrument flags,Ambient pressure (hPa),Sample flow (lpm),Bypass flow (lpm),Sample temperature (°C),Ambient temperature (°C),ASC tube jacket temperature (°C),LED temperature (°C),Box temperature (°C),Sample RH (%),Span deviation,Mass concentration (μg/m³),Mass concentration (μg/m³),Mass concentration (μg/m³)
DateTimeUTC,F1_M11,P_M11,Q1_M11,Q2_M11,T1_M11,T2_M11,T3_M11,T4_M11,T5_M11,U1_M11,ZSPAN_M11,X0_M11,X2_M11,X1_M11
2022-11-18 01:00:00,,0833.1,5.01,0.00,22.2,20.6,00.0,31.2,23.9,11.3,0000.0,0007.91,0005.84,0005.70
2022-11-18 01:01:00,,0833.2,5.00,0.00,22.1,20.5,00.0,31.2,23.9,11.3,0000.0,0008.10,0005.82,0005.68
2022-11-18 01:02:00,,0833.1,5.00,0.00,22.1,20.9,00.0,31.2,23.9,11.3,0000.0,0008.67,0005.80,0005.66
2022-11-18 01:03:00,,0833.2,5.01,0.00,22.2,21.8,00.0,31.1,24.1,11.3,0000.0,0008.65,0005.77,0005.64
2022-11-18 01:04:00,,0833.2,4.98,0.00,22.3,22.3,00.0,31.1,24.3,11.2,0000.0,0008.60,0005.71,0005.57
2022-11-18 01:05:00,,0833.2,5.01,0.00,22.3,21.9,00.0,31.2,24.3,11.1,0000.0,0008.60,0005.63,0005.48
2022-11-18 01:06:00,,0833.2,5.00,0.00,22.3,21.5,00.0,31.2,24.2,11.1,0000.0,0008.57,0005.52,0005.37
2022-11-18 01:07:00,,0833.1,4.99,0.00,22.3,21.2,00.0,31.2,24.1,11.1,0000.0,0008.49,0005.38,0005.21
2022-11-18 01:08:00,,0833.1,4.99,0.00,22.2,21.0,00.0,31.2,24.0,11.1,0000.0,0008.43,0005.22,0005.05
2022-11-18 01:09:00,,0833.2,5.00,0.00,22.2,20.7,00.0,31.2,23.9,11.1,0000.0,0008.53,0005.06,0004.90
2022-11-18 01:10:00,,0833.2,5.00,0.00,22.1,20.6,00.0,31.2,23.9,11.2,0000.0,0008.44,0004.95,0004.79
2022-11-18 01:11:00,,0833.2,5.00,0.00,22.1,20.5,00.0,31.2,23.8,11.2,0000.0,0008.30,0004.80,0004.65
2022-11-18 01:12:00,,0833.2,5.00,0.00,22.1,20.6,00.0,31.1,23.8,11.2,0000.0,0008.22,0004.70,0004.52
2022-11-18 01:13:00,,0833.3,4.99,0.00,22.2,21.5,00.0,31.1,24.0,11.1,0000.0,0007.43,0004.56,0004.37
2022-11-18 01:14:00,,0833.2,4.99,0.00,22.3,22.2,00.0,31.1,24.2,11.0,0000.0,0007.32,0004.43,0004.23
2022-11-18 01:15:00,,0833.2,5.01,0.00,22.3,21.9,00.0,31.1,24.2,10.9,0000.0,0007.20,0004.34,0004.14
2022-11-18 01:16:00,,0833.2,5.01,0.00,22.3,21.5,00.0,31.2,24.1,10.9,0000.0,0006.96,0004.26,0004.06
2022-11-18 01:17:00,,0833.1,4.99,0.00,22.2,21.2,00.0,31.2,24.0,10.9,0000.0,0006.84,0004.21,0004.02
2022-11-18 01:18:00,,0833.2,5.00,0.00,22.2,21.0,00.0,31.2,23.9,10.9,0000.0,0006.93,0004.19,0004.00
2022-11-18 01:19:00,,0833.1,4.99,0.00,22.2,20.8,00.0,31.2,23.9,10.9,0000.0,0006.99,0004.19,0003.99
2022-11-18 01:20:00,,0833.2,5.02,0.00,22.1,20.6,00.0,31.2,23.9,10.8,0000.0,0006.70,0004.20,0003.97
2022-11-18 01:21:00,,0833.3,4.99,0.00,22.1,20.7,00.0,31.1,23.8,10.8,0000.0,0006.72,0004.19,0003.95
2022-11-18 01:22:00,,0833.2,5.00,0.00,22.2,21.6,00.0,31.1,24.0,10.8,0000.0,0006.71,0004.18,0003.93
2022-11-18 01:23:00,,0833.3,5.00,0.00,22.3,22.4,00.0,31.1,24.3,10.7,0000.0,0006.62,0004.15,0003.92
2022-11-18 01:24:00,,0833.2,4.99,0.00,22.3,22.1,00.0,31.1,24.3,10.7,0000.0,0006.58,0004.13,0003.91
2022-11-18 01:25:00,,0833.2,5.00,0.00,22.3,21.7,00.0,31.2,24.2,10.6,0000.0,0006.59,0004.13,0003.92
2022-11-18 01:26:00,,0833.3,5.00,0.00,22.3,21.4,00.0,31.2,24.1,10.7,0000.0,0006.66,0004.14,0003.93
2022-11-18 01:27:00,,0833.3,5.00,0.00,22.2,21.1,00.0,31.2,24.0,10.7,0000.0,0006.74,0004.17,0003.95
2022-11-18 01:28:00,,0833.3,5.02,0.00,22.2,20.9,00.0,31.2,23.9,10.7,0000.0,0006.84,0004.21,0003.97
2022-11-18 01:29:00,,0833.2,5.00,0.00,22.2,20.7,00.0,31.2,23.9,10.7,0000.0,0006.66,0004.23,0003.99
2022-11-18 01:30:00,,0833.2,4.99,0.00,22.1,20.6,00.0,31.2,23.8,10.7,0000.0,0006.55,0004.23,0004.00
2022-11-18 01:31:00,,0833.2,5.01,0.00,22.1,20.5,00.0,31.2,23.8,10.7,0000.0,0006.35,0004.23,0004.03
2022-11-18 01:32:00,,0833.3,5.00,0.00,22.1,20.9,00.0,31.1,23.9,10.7,0000.0,0006.47,0004.27,0004.06
2022-11-18 01:33:00,,0833.3,5.00,0.00,22.2,21.9,00.0,31.1,24.1,10.7,0000.0,0006.49,0004.29,0004.08
2022-11-18 01:34:00,,0833.4,4.99,0.00,22.3,22.3,00.0,31.1,24.3,10.6,0000.0,0006.38,0004.29,0004.10
2022-11-18 01:35:00,,0833.3,4.99,0.00,22.3,21.9,00.0,31.2,24.3,10.6,0000.0,0006.37,0004.32,0004.12
2022-11-18 01:36:00,,0833.3,5.02,0.00,22.3,21.6,00.0,31.2,24.2,10.6,0000.0,0006.39,0004.33,0004.13
2022-11-18 01:37:00,,0833.2,4.98,0.00,22.3,21.3,00.0,31.2,24.1,10.6,0000.0,0006.32,0004.34,0004.15
2022-11-18 01:38:00,,0833.3,5.00,0.00,22.2,21.1,00.0,31.2,24.0,10.7,0000.0,0006.28,0004.33,0004.15
2022-11-18 01:39:00,,0833.3,5.00,0.00,22.2,20.9,00.0,31.2,24.0,10.7,0000.0,0006.21,0004.33,0004.16
2022-11-18 01:40:00,,0833.3,5.00,0.00,22.2,20.8,00.0,31.2,23.9,10.7,0000.0,0006.36,0004.36,0004.18
2022-11-18 01:41:00,,0833.4,4.99,0.00,22.1,20.7,00.0,31.2,23.9,10.7,0000.0,0006.58,0004.41,0004.21
2022-11-18 01:42:00,,0833.4,5.01,0.00,22.1,20.6,00.0,31.2,23.9,10.8,0000.0,0006.69,0004.44,0004.22
2022-11-18 01:43:00,,0833.5,5.02,0.00,22.1,20.9,00.0,31.1,23.9,10.7,0000.0,0006.70,0004.46,0004.22
2022-11-18 01:44:00,,0833.5,4.99,0.00,22.2,21.8,00.0,31.1,24.1,10.7,0000.0,0006.92,0004.51,0004.24
2022-11-18 01:45:00,,0833.4,5.00,0.00,22.3,22.4,00.0,31.1,24.3,10.6,0000.0,0007.08,0004.55,0004.27
2022-11-18 01:46:00,,0833.4,5.00,0.00,22.3,22.0,00.0,31.1,24.3,10.5,0000.0,0007.10,0004.58,0004.29
2022-11-18 01:47:00,,0833.4,5.01,0.00,22.3,21.6,00.0,31.2,24.2,10.5,0000.0,0007.50,0004.62,0004.32
2022-11-18 01:48:00,,0833.4,5.00,0.00,22.3,21.3,00.0,31.2,24.0,10.5,0000.0,0008.13,0004.66,0004.34
2022-11-18 01:49:00,,0833.5,5.00,0.00,22.2,21.0,00.0,31.2,24.0,10.5,0000.0,0008.16,0004.69,0004.36
2022-11-18 01:50:00,,0833.5,4.99,0.00,22.2,20.8,00.0,31.2,23.9,10.5,0000.0,0008.37,0004.70,0004.37
2022-11-18 01:51:00,,0833.5,5.01,0.00,22.2,20.6,00.0,31.2,23.9,10.5,0000.0,0008.92,0004.69,0004.37
2022-11-18 01:52:00,,0833.5,5.01,0.00,22.1,20.4,00.0,31.2,23.8,10.4,0000.0,0008.85,0004.66,0004.35
2022-11-18 01:53:00,,0833.5,4.98,0.00,22.1,20.6,00.0,31.1,23.8,10.5,0000.0,0008.80,0004.65,0004.35
2022-11-18 01:54:00,,0833.6,5.00,0.00,22.1,21.5,00.0,31.1,24.0,10.4,0000.0,0008.75,0004.63,0004.35
2022-11-18 01:55:00,,0833.6,5.01,0.00,22.2,22.2,00.0,31.1,24.2,10.4,0000.0,0008.64,0004.61,0004.35
2022-11-18 01:56:00,,0833.6,4.98,0.00,22.3,22.0,00.0,31.1,24.2,10.3,0000.0,0008.58,0004.57,0004.34
2022-11-18 01:57:00,,0833.6,5.01,0.00,22.3,21.6,00.0,31.2,24.1,10.3,0000.0,0008.63,0004.57,0004.32
2022-11-18 01:58:00,,0833.5,5.00,0.00,22.3,21.3,00.0,31.2,24.0,10.3,0000.0,0008.39,0004.55,0004.30
2022-11-18 01:59:00,,0833.5,5.00,0.00,22.2,21.1,00.0,31.2,24.0,10.3,0000.0,0007.82,0004.54,0004.29
